When you browse on this site, cookies collect data to enhance your experience and personalize the content and advertising you see.
Visit our Privacy Policy to learn more. By continuing to use the site, you agree to this use of cookies and data.
  • en Suisse
  • Liste des pays
  • À 7 jours
  • Température de l'eau
  • Carte météo
  • Widgets météo
  • user-avatar
    Se connecter

    Météo par heure à Erd

    Ce jour, 3 Avril, Vendredi

    Heure Température Précipitation Vent Pression Humidité
    00:00 +5°C° 0 mm 1 m/s 749 mmHg 69%
    01:00 +4°C° 0 mm 1 m/s 749 mmHg 68%
    02:00 +4°C° 0 mm 1 m/s 749 mmHg 69%
    03:00 +4°C° 0 mm 1 m/s 749 mmHg 71%
    04:00 +3°C° 0 mm 1 m/s 749 mmHg 73%
    05:00 +4°C° 0 mm 1 m/s 749 mmHg 71%
    06:00 +4°C° 0 mm 2 m/s 749 mmHg 69%
    07:00 +4°C° 0 mm 2 m/s 750 mmHg 67%
    08:00 +6°C° 0 mm 2 m/s 750 mmHg 62%
    09:00 +8°C° 0 mm 2 m/s 750 mmHg 56%
    10:00 +10°C° 0 mm 3 m/s 750 mmHg 51%
    11:00 +11°C° 0 mm 3 m/s 750 mmHg 48%
    12:00 +12°C° 0 mm 3 m/s 750 mmHg 44%
    13:00 +14°C° 0 mm 3 m/s 750 mmHg 41%
    14:00 +14°C° 0 mm 3 m/s 750 mmHg 41%
    15:00 +14°C° 0 mm 3 m/s 750 mmHg 42%
    16:00 +14°C° 0 mm 4 m/s 750 mmHg 43%
    17:00 +12°C° 0 mm 3 m/s 750 mmHg 48%
    18:00 +12°C° 0 mm 2 m/s 750 mmHg 54%
    19:00 +9°C° 0 mm 2 m/s 751 mmHg 59%
    20:00 +9°C° 0 mm 2 m/s 751 mmHg 61%
    21:00 +8°C° 0 mm 2 m/s 752 mmHg 64%
    22:00 +8°C° 0 mm 2 m/s 752 mmHg 66%
    23:00 +7°C° 0 mm 2 m/s 753 mmHg 66%

    Demain, 4 Avril, Samedi

    Heure Température Précipitation Vent Pression Humidité
    00:00 +7°C° 0 mm 2 m/s 753 mmHg 67%
    01:00 +6°C° 0 mm 2 m/s 753 mmHg 68%
    02:00 +5°C° 0 mm 3 m/s 754 mmHg 69%
    03:00 +5°C° 0 mm 3 m/s 754 mmHg 70%
    04:00 +4°C° 0 mm 3 m/s 754 mmHg 71%
    05:00 +5°C° 0 mm 3 m/s 754 mmHg 70%
    06:00 +5°C° 0 mm 3 m/s 755 mmHg 69%
    07:00 +7°C° 0 mm 3 m/s 755 mmHg 68%
    08:00 +9°C° 0 mm 3 m/s 756 mmHg 62%
    09:00 +11°C° 0 mm 3 m/s 756 mmHg 57%
    10:00 +12°C° 0 mm 3 m/s 756 mmHg 51%
    11:00 +13°C° 0 mm 3 m/s 756 mmHg 48%
    12:00 +14°C° 0 mm 3 m/s 756 mmHg 45%
    13:00 +16°C° 0 mm 3 m/s 756 mmHg 41%
    14:00 +16°C° 0 mm 3 m/s 756 mmHg 42%
    15:00 +14°C° 0 mm 3 m/s 756 mmHg 43%
    16:00 +14°C° 0 mm 3 m/s 756 mmHg 43%
    17:00 +14°C° 0 mm 2 m/s 756 mmHg 47%
    18:00 +13°C° 0 mm 2 m/s 757 mmHg 51%
    19:00 +12°C° 0 mm 2 m/s 757 mmHg 55%
    20:00 +10°C° 0 mm 2 m/s 758 mmHg 57%
    21:00 +10°C° 0 mm 2 m/s 758 mmHg 60%
    22:00 +9°C° 0 mm 2 m/s 759 mmHg 63%
    23:00 +8°C° 0 mm 2 m/s 759 mmHg 63%

    Après-demain, 5 Avril, Dimanche

    Heure Température Précipitation Vent Pression Humidité
    00:00 +8°C° 0 mm 3 m/s 760 mmHg 63%
    01:00 +7°C° 0 mm 3 m/s 760 mmHg 63%
    02:00 +7°C° 0 mm 3 m/s 760 mmHg 61%
    03:00 +5°C° 0 mm 3 m/s 760 mmHg 60%
    04:00 +5°C° 0 mm 4 m/s 761 mmHg 59%
    05:00 +6°C° 0 mm 4 m/s 761 mmHg 58%
    06:00 +6°C° 0 mm 4 m/s 761 mmHg 57%
    07:00 +7°C° 0 mm 5 m/s 762 mmHg 56%
    08:00 +8°C° 0 mm 5 m/s 762 mmHg 52%
    09:00 +10°C° 0 mm 5 m/s 762 mmHg 48%
    10:00 +12°C° 0 mm 5 m/s 762 mmHg 43%
    11:00 +13°C° 0 mm 5 m/s 762 mmHg 43%
    12:00 +14°C° 0 mm 5 m/s 762 mmHg 42%
    13:00 +15°C° 0 mm 5 m/s 761 mmHg 42%
    14:00 +15°C° 0 mm 5 m/s 761 mmHg 43%
    15:00 +15°C° 0 mm 5 m/s 761 mmHg 44%
    16:00 +15°C° 0 mm 5 m/s 761 mmHg 46%
    17:00 +13°C° 0 mm 4 m/s 761 mmHg 50%
    18:00 +12°C° 0 mm 4 m/s 761 mmHg 55%
    19:00 +11°C° 0 mm 3 m/s 761 mmHg 59%
    20:00 +10°C° 0 mm 3 m/s 762 mmHg 58%
    21:00 +8°C° 0 mm 4 m/s 762 mmHg 57%
    22:00 +8°C° 0 mm 4 m/s 762 mmHg 56%
    23:00 +7°C° 0 mm 4 m/s 763 mmHg 59%

    6 Avril, Lundi

    Heure Température Précipitation Vent Pression Humidité
    00:00 +7°C° 0 mm 4 m/s 763 mmHg 62%
    01:00 +6°C° 0 mm 4 m/s 763 mmHg 65%
    02:00 +6°C° 0 mm 4 m/s 763 mmHg 66%
    03:00 +5°C° 0 mm 4 m/s 763 mmHg 67%
    04:00 +5°C° 0 mm 3 m/s 764 mmHg 68%
    05:00 +5°C° 0 mm 3 m/s 764 mmHg 65%
    06:00 +7°C° 0 mm 3 m/s 764 mmHg 62%
    07:00 +7°C° 0 mm 3 m/s 765 mmHg 59%
    08:00 +8°C° 0 mm 4 m/s 765 mmHg 54%
    09:00 +10°C° 0 mm 4 m/s 765 mmHg 48%
    10:00 +12°C° 0 mm 4 m/s 766 mmHg 43%
    11:00 +13°C° 0 mm 4 m/s 766 mmHg 41%
    12:00 +14°C° 0 mm 4 m/s 766 mmHg 39%
    13:00 +15°C° 0 mm 4 m/s 766 mmHg 38%
    14:00 +15°C° 0 mm 4 m/s 765 mmHg 38%
    15:00 +15°C° 0 mm 4 m/s 765 mmHg 39%
    16:00 +15°C° 0 mm 4 m/s 765 mmHg 40%
    17:00 +13°C° 0 mm 4 m/s 765 mmHg 45%
    18:00 +12°C° 0 mm 3 m/s 765 mmHg 51%
    19:00 +11°C° 0 mm 3 m/s 765 mmHg 56%
    20:00 +10°C° 0 mm 3 m/s 765 mmHg 59%
    21:00 +9°C° 0 mm 2 m/s 766 mmHg 62%
    22:00 +8°C° 0 mm 2 m/s 766 mmHg 65%
    23:00 +8°C° 0 mm 2 m/s 766 mmHg 65%

    7 Avril, Mardi

    Heure Température Précipitation Vent Pression Humidité
    00:00 +7°C° 0 mm 2 m/s 766 mmHg 65%
    01:00 +8°C° 0 mm 1 m/s 766 mmHg 65%
    02:00 +7°C° 0 mm 1 m/s 766 mmHg 61%
    03:00 +7°C° 0 mm 1 m/s 766 mmHg 58%
    04:00 +6°C° 0 mm 1 m/s 767 mmHg 54%
    05:00 +7°C° 0 mm 1 m/s 767 mmHg 50%
    06:00 +6°C° 0 mm 2 m/s 767 mmHg 47%
    07:00 +7°C° 0 mm 2 m/s 767 mmHg 44%
    08:00 +9°C° 0 mm 2 m/s 767 mmHg 40%
    09:00 +10°C° 0 mm 2 m/s 768 mmHg 37%
    10:00 +13°C° 0 mm 2 m/s 768 mmHg 34%
    11:00 +14°C° 0 mm 2 m/s 768 mmHg 33%
    12:00 +15°C° 0 mm 2 m/s 768 mmHg 32%
    13:00 +16°C° 0 mm 1 m/s 767 mmHg 32%
    14:00 +18°C° 0 mm 1 m/s 767 mmHg 31%
    15:00 +18°C° 0 mm 1 m/s 767 mmHg 31%
    16:00 +18°C° 0 mm 1 m/s 766 mmHg 31%
    17:00 +15°C° 0 mm 1 m/s 766 mmHg 34%
    18:00 +13°C° 0 mm 0 m/s 766 mmHg 38%
    19:00 +11°C° 0 mm 0 m/s 766 mmHg 41%
    20:00 +11°C° 0 mm 0 m/s 766 mmHg 43%
    21:00 +10°C° 0 mm 0 m/s 766 mmHg 45%
    22:00 +9°C° 0 mm 0 m/s 766 mmHg 47%
    23:00 +10°C° 0 mm 1 m/s 766 mmHg 48%

    8 Avril, Mercredi

    Heure Température Précipitation Vent Pression Humidité
    00:00 +10°C° 0 mm 1 m/s 766 mmHg 50%
    01:00 +9°C° 0 mm 1 m/s 766 mmHg 52%
    02:00 +9°C° 0 mm 1 m/s 766 mmHg 53%
    03:00 +8°C° 0 mm 1 m/s 766 mmHg 55%
    04:00 +8°C° 0 mm 1 m/s 766 mmHg 56%
    05:00 +9°C° 0 mm 1 m/s 766 mmHg 55%
    06:00 +10°C° 0 mm 1 m/s 766 mmHg 55%
    07:00 +11°C° 0 mm 1 m/s 766 mmHg 54%
    08:00 +13°C° 0 mm 1 m/s 766 mmHg 48%
    09:00 +15°C° 0 mm 1 m/s 766 mmHg 43%
    10:00 +18°C° 0 mm 1 m/s 766 mmHg 37%
    11:00 +19°C° 0 mm 1 m/s 765 mmHg 34%
    12:00 +20°C° 0 mm 1 m/s 765 mmHg 32%
    13:00 +20°C° 0 mm 2 m/s 765 mmHg 29%
    14:00 +21°C° 0 mm 1 m/s 764 mmHg 29%
    15:00 +21°C° 0 mm 1 m/s 764 mmHg 29%
    16:00 +21°C° 0 mm 1 m/s 763 mmHg 28%
    17:00 +19°C° 0 mm 1 m/s 763 mmHg 33%
    18:00 +16°C° 0 mm 1 m/s 763 mmHg 38%
    19:00 +14°C° 0 mm 0 m/s 762 mmHg 42%
    20:00 +13°C° 0 mm 0 m/s 763 mmHg 44%
    21:00 +12°C° 0 mm 0 m/s 763 mmHg 46%
    22:00 +12°C° 0 mm 0 m/s 763 mmHg 48%
    23:00 +12°C° 0 mm 1 m/s 763 mmHg 49%
    Voir plus